Weather History for Joliet, IL

Change the Weather History Date:

Thursday, January 17, 2013

  Actual Average (KLOT) Record (KLOT)
Temperature  
Mean Temperature 24 °F 23 °F  
Max Temperature 33 °F 30 °F 56 °F (1996)
Min Temperature 14 °F 16 °F -15 °F (1997)
Degree Days  
Heating Degree Days 42 42  
Month to date heating degree days 711  
Since 1 July heating degree days 3097  
Cooling Degree Days 0 0  
Month to date cooling degree days 0  
Year to date cooling degree days 0  
Moisture  
Dew Point 16 °F    
Average Humidity 67    
Maximum Humidity 91    
Minimum Humidity 44    
Precipitation  
Precipitation 0.00 in 0.06 in 0.44 in (1999)
Month to date precipitation 1.19  
Year to date precipitation 1.19  
Snow  
Snow 0.00 in 0.40 in 1.00 in (2000)
Month to date snowfall 6.0  
Since 1 July snowfall 16.2  
Snow Depth -    
Sea Level Pressure  
Sea Level Pressure 30.28 in    
Wind  
Wind Speed 6 mph (NW)    
Max Wind Speed 14 mph    
Max Gust Speed 22 mph    
Visibility 10 miles    
Events      
T = Trace of Precipitation, MM = Missing Value Source: NWS Daily Summary

Daily Weather History Graph

Daily Weather History Graph

Search for Another Location

Airport:

Trip Planner

Search our weather history database for the weather conditions in past years. The results will help you decide how hot, cold, wet, or windy it might be!

Date:

Astronomy

Jan. 17, 2013 Rise Set
Actual Time 7:15 AM CST 4:50 PM CST
Civil Twilight 6:45 AM CST 5:20 PM CST
Nautical Twilight 6:11 AM CST 5:54 PM CST
Astronomical Twilight 5:38 AM CST 6:28 PM CST
Moon 10:17 AM CST (1/17) 11:47 PM CST (1/17)
Length of Visible Light 10h 35m
Length of Day
9h 34m
Waxing Crescent, 38% of the Moon is Illuminated
Jan 17
Waxing Crescent
Jan 18
First Quarter
Jan 26
Full
Feb 3
Last Quarter
Feb 10
New

Hourly Weather History & Observations

Time (CST) Temp. Windchill Dew Point Humidity Pressure Visibility Wind Dir Wind Speed Gust Speed Precip Events Conditions
12:15 AM 32.2 °F 28.9 °F 27.5 °F 83% 30.07 in 10.0 mi WSW 3.5 mph - N/A   Mostly Cloudy
12:35 AM 32.0 °F - 28.4 °F 87% 30.08 in 10.0 mi Calm Calm - N/A   Overcast
12:55 AM 32.9 °F 28.5 °F 28.4 °F 84% 30.09 in 10.0 mi West 4.6 mph - N/A   Overcast
1:15 AM 33.3 °F 27.9 °F 29.1 °F 85% 30.10 in 10.0 mi West 5.8 mph - N/A   Overcast
1:35 AM 33.1 °F 30.0 °F 29.3 °F 86% 30.10 in 10.0 mi West 3.5 mph - N/A   Overcast
1:55 AM 32.9 °F - 29.3 °F 87% 30.11 in 10.0 mi Calm Calm - N/A   Mostly Cloudy
2:15 AM 32.0 °F - 29.1 °F 89% 30.12 in 10.0 mi Calm Calm - N/A   Scattered Clouds
2:35 AM 31.8 °F 28.5 °F 29.1 °F 90% 30.13 in 7.0 mi WNW 3.5 mph - N/A   Clear
2:55 AM 31.1 °F 25.4 °F 28.4 °F 90% 30.14 in 7.0 mi NW 5.8 mph - N/A   Clear
3:15 AM 29.8 °F 24.9 °F 27.5 °F 91% 30.14 in 7.0 mi NW 4.6 mph - N/A   Clear
3:35 AM 30.0 °F 23.2 °F 27.1 °F 89% 30.15 in 10.0 mi NW 6.9 mph - N/A   Clear
3:55 AM 30.7 °F 22.6 °F 27.1 °F 86% 30.17 in 10.0 mi NW 9.2 mph - N/A   Clear
4:15 AM 30.7 °F 22.0 °F 25.9 °F 82% 30.18 in 10.0 mi NW 10.4 mph - N/A   Clear
4:35 AM 29.8 °F 21.5 °F 24.8 °F 81% 30.18 in 10.0 mi NW 9.2 mph - N/A   Clear
4:55 AM 29.1 °F 22.1 °F 24.4 °F 83% 30.19 in 10.0 mi NNW 6.9 mph - N/A   Clear
5:15 AM 28.2 °F 22.0 °F 23.7 °F 83% 30.20 in 10.0 mi North 5.8 mph - N/A   Clear
5:35 AM 28.4 °F 21.2 °F 21.7 °F 76% 30.22 in 10.0 mi NNW 6.9 mph - N/A   Clear
5:55 AM 27.9 °F 19.1 °F 19.4 °F 71% 30.23 in 10.0 mi NNW 9.2 mph - N/A   Clear
6:15 AM 26.6 °F 19.1 °F 18.0 °F 70% 30.23 in 10.0 mi NNW 6.9 mph - N/A   Clear
6:35 AM 26.1 °F 19.4 °F 17.6 °F 70% 30.24 in 10.0 mi NW 5.8 mph - N/A   Clear
6:55 AM 25.0 °F 19.3 °F 17.4 °F 73% 30.25 in 10.0 mi NNW 4.6 mph - N/A   Clear
7:15 AM 24.6 °F 20.3 °F 16.0 °F 70% 30.26 in 10.0 mi NNW 3.5 mph - N/A   Clear
7:35 AM 24.4 °F 15.6 °F 15.4 °F 69% 30.27 in 10.0 mi NNW 8.1 mph - N/A   Clear
7:55 AM 25.0 °F 19.3 °F 14.4 °F 64% 30.28 in 10.0 mi NNW 4.6 mph - N/A   Clear
8:15 AM 25.7 °F 20.1 °F 15.3 °F 65% 30.29 in 10.0 mi NW 4.6 mph - N/A   Clear
8:35 AM 26.6 °F 15.2 °F 14.0 °F 59% 30.30 in 10.0 mi NNW 13.8 mph - N/A   Clear
8:55 AM 25.7 °F 16.4 °F 12.2 °F 57% 30.31 in 10.0 mi NNW 9.2 mph 17.3 mph N/A   Clear
9:15 AM 26.2 °F 15.2 °F 11.8 °F 55% 30.31 in 10.0 mi NNW 12.7 mph - N/A   Clear
9:35 AM 26.8 °F 17.7 °F 10.8 °F 51% 30.32 in 10.0 mi NW 9.2 mph - N/A   Clear
9:55 AM 27.3 °F 19.1 °F 9.3 °F 47% 30.32 in 10.0 mi NW 8.1 mph - N/A   Clear
10:15 AM 28.2 °F 18.3 °F 9.3 °F 45% 30.32 in 10.0 mi WNW 11.5 mph - N/A   Clear
10:35 AM 28.2 °F 20.2 °F 9.3 °F 45% 30.33 in 10.0 mi NW 8.1 mph - N/A   Clear
10:55 AM 28.4 °F 19.7 °F 9.3 °F 45% 30.32 in 10.0 mi WNW 9.2 mph - N/A   Clear
11:15 AM 29.3 °F 20.2 °F 10.9 °F 46% 30.32 in 10.0 mi West 10.4 mph 18.4 mph N/A   Clear
11:35 AM 29.1 °F 19.4 °F 10.2 °F 45% 30.32 in 10.0 mi West 11.5 mph - N/A   Clear
11:55 AM 29.5 °F 19.9 °F 10.9 °F 46% 30.32 in 10.0 mi West 11.5 mph 16.1 mph N/A   Clear
12:15 PM 29.3 °F 18.6 °F 10.4 °F 45% 30.32 in 10.0 mi WNW 13.8 mph 17.3 mph N/A   Clear
12:35 PM 29.8 °F 21.5 °F 12.6 °F 49% 30.31 in 10.0 mi WNW 9.2 mph 16.1 mph N/A   Clear
12:55 PM 30.2 °F 20.2 °F 12.6 °F 48% 30.31 in 10.0 mi NW 12.7 mph 17.3 mph N/A   Clear
1:15 PM 30.0 °F 21.1 °F 10.8 °F 45% 30.31 in 10.0 mi WNW 10.4 mph 18.4 mph N/A   Clear
1:35 PM 29.8 °F 19.8 °F 10.2 °F 44% 30.31 in 10.0 mi NW 12.7 mph 21.9 mph N/A   Clear
1:55 PM 30.7 °F 22.6 °F 11.1 °F 44% 30.31 in 10.0 mi WNW 9.2 mph 17.3 mph N/A   Clear
2:15 PM 30.2 °F 20.8 °F 10.8 °F 44% 30.31 in 10.0 mi WNW 11.5 mph 18.4 mph N/A   Clear
2:35 PM 30.0 °F 20.0 °F 10.6 °F 44% 30.32 in 10.0 mi WNW 12.7 mph 16.1 mph N/A   Clear
2:55 PM 29.3 °F 20.8 °F 10.6 °F 46% 30.33 in 10.0 mi West 9.2 mph 18.4 mph N/A   Clear
3:15 PM 29.3 °F 19.6 °F 10.8 °F 46% 30.33 in 10.0 mi WNW 11.5 mph 16.1 mph N/A   Clear
3:35 PM 28.4 °F 22.2 °F 9.1 °F 44% 30.34 in 10.0 mi NW 5.8 mph - N/A   Clear
3:55 PM 28.2 °F 21.0 °F 9.7 °F 46% 30.34 in 10.0 mi WNW 6.9 mph - N/A   Clear
4:55 PM 26.4 °F 19.8 °F 10.4 °F 51% 30.36 in 10.0 mi West 5.8 mph - N/A   Clear
5:15 PM 25.7 °F 21.5 °F 11.1 °F 54% 30.36 in 10.0 mi West 3.5 mph - N/A   Clear
5:35 PM 25.2 °F 18.3 °F 12.0 °F 58% 30.36 in 10.0 mi West 5.8 mph - N/A   Clear
5:55 PM 24.8 °F 17.9 °F 12.6 °F 60% 30.38 in 10.0 mi West 5.8 mph - N/A   Clear
6:35 PM 23.7 °F 19.3 °F 12.2 °F 61% 30.39 in 10.0 mi WSW 3.5 mph - N/A   Clear
7:15 PM 22.1 °F - 12.9 °F 68% 30.39 in 10.0 mi Calm Calm - N/A   Clear
7:35 PM 18.1 °F - 12.2 °F 78% 30.39 in 10.0 mi Calm Calm - N/A   Clear
7:55 PM 18.3 °F - 13.1 °F 80% 30.39 in 10.0 mi Calm Calm - N/A   Clear
8:15 PM 16.5 °F - 11.5 °F 81% 30.39 in 10.0 mi Calm Calm - N/A   Clear
8:35 PM 16.2 °F - 12.6 °F 86% 30.40 in 10.0 mi Calm Calm - N/A   Clear
8:55 PM 15.4 °F - 12.2 °F 87% 30.40 in 10.0 mi Calm Calm - N/A   Clear
9:15 PM 17.1 °F - 13.1 °F 84% 30.40 in 10.0 mi Calm Calm - N/A   Clear
9:35 PM 14.9 °F - 11.7 °F 87% 30.40 in 10.0 mi Calm Calm - N/A   Clear
9:55 PM 14.5 °F - 12.2 °F 90% 30.40 in 10.0 mi Calm Calm - N/A   Clear
11:15 PM 14.7 °F - 12.2 °F 90% 30.39 in 10.0 mi Calm Calm - N/A   Clear
11:35 PM 15.4 °F - 12.9 °F 90% 30.39 in 10.0 mi Calm Calm - N/A   Clear
11:55 PM 19.4 °F - 15.1 °F 83% 30.41 in 10.0 mi Calm Calm - N/A   Clear